Location: Aulnoy
(48.8410°N, 3.0967°E)
Time: 11:59:11
(UTC+00:00)

ATLAS 2AS CENTAUR R/B - Pass Details

Date: 09 February 2023
Orbit: 986 x 1226 km, 63.7° (Epoch: 31 January)

Event Time Altitude Azimuth Distance (km) Brightness Sun altitude
Rises 17:34:46 0° 315° (NW) 3,953 6.1 -6.6°
Reaches altitude 10° 17:37:43 10° 308° (NW) 2,953 5.6 -7.1°
Maximum altitude 17:43:54 36° 245° (WSW) 1,617 4.5 -8.0°
Drops below altitude 10° 17:49:47 10° 182° (S) 2,797 5.1 -9.0°
Sets 17:52:31 0° 173° (S) 3,720 5.6 -9.4°
